Simultaneous Nadir Overpasses (SNOs) Predictions

Prediction of SNOs between METOP-B and TERRA Satellite Orbit:

Table of predicted SNOs for the next 14.0 days since TLE Epoch: 11/19/2012
Index Date (METOP-B) Time (METOP-B) METOP-B Lat,Lon Date (TERRA) Time (TERRA) TERRA Lat,Lon Distance(km) Time Diff (sec)
1 11/20/2012 20:46:17 81.26, -85.04 11/20/2012 20:47:12 81.27, -85.03 0.79 55
2 11/20/2012 21:36:58 -81.27, 82.43 11/20/2012 21:36:39 -81.27, 82.54 1.80 19
3 11/23/2012 16:20:42 81.26, -18.69 11/23/2012 16:21:29 81.27, -18.55 2.70 47
4 11/23/2012 17:11:22 -81.27, 149.22 11/23/2012 17:10:56 -81.27, 149.04 3.18 26
5 11/26/2012 11:55:06 81.26, 47.61 11/26/2012 11:55:45 81.26, 47.73 1.98 39
6 11/26/2012 12:45:47 -81.27,-144.81 11/26/2012 12:45:12 -81.26,-144.67 2.40 35
7 11/29/2012 07:29:30 81.27, 114.27 11/29/2012 07:30:01 81.27, 114.18 1.47 31
8 11/29/2012 08:20:11 -81.27, -78.11 11/29/2012 08:19:28 -81.27, -78.19 1.57 43
9 12/02/2012 03:03:55 81.26,-179.50 12/02/2012 03:04:17 81.26,-179.56 1.30 22




NCC Satellite Simultaneous Nadir Overpasses (SNOs) Prediction Service
